GEFSMA_prec_meanprecacc_216.txt.gz
Total_Precipitation_Accumulation
2.21 2.31 2.30 2.25 2.09 2.42 2.84 3.07 2.78 3.06 3.05 2.62 2.26 2.15 2.15 2.11 2.30 2.53 2.38 2.54 2.46 2.41 2.65 2.70 2.51 2.28 2.11 1.76 1.48 1.27 1.11 1.06 1.00 0.82 0.69 0.66 0.60 0.53 0.52 0.51 0.49 0.46 0.43
2.75 2.81 2.65 2.55 2.31 2.32 2.62 2.83 2.81 3.06 2.94 2.77 2.15 2.03 2.00 2.13 2.32 2.40 2.42 2.85 2.82 2.57 2.59 2.76 2.81 2.65 2.47 2.30 1.96 1.66 1.44 1.31 1.22 0.97 0.77 0.71 0.68 0.61 0.57 0.59 0.62 0.56 0.46
3.26 3.14 2.94 2.58 2.44 2.49 2.66 2.61 2.62 2.68 2.55 2.48 2.23 2.27 2.21 2.12 2.04 2.12 2.26 2.47 2.40 2.25 2.27 2.41 2.71 2.89 3.05 3.04 2.78 2.56 2.08 1.66 1.42 1.14 0.90 0.73 0.65 0.60 0.58 0.61 0.67 0.65 0.53
3.17 3.12 2.83 2.43 2.50 2.57 2.57 2.59 2.45 2.50 2.52 2.57 2.55 2.36 2.41 2.30 1.87 1.89 1.97 1.91 2.01 1.83 2.03 2.21 2.37 2.62 3.14 3.58 3.79 3.63 3.02 2.26 1.72 1.40 1.17 0.94 0.79 0.67 0.59 0.59 0.66 0.65 0.52
3.00 3.09 2.78 2.66 2.60 2.59 2.42 2.21 2.54 2.69 2.70 2.69 2.44 2.32 2.11 1.91 1.68 1.51 1.48 1.36 1.54 1.73 1.94 2.00 2.17 2.30 2.82 3.65 4.40 4.60 4.18 3.26 2.48 1.96 1.69 1.42 1.18 0.96 0.79 0.73 0.69 0.61 0.52
2.69 2.83 2.59 2.56 2.68 2.71 2.48 2.48 2.74 2.75 2.48 2.53 2.26 2.11 1.91 1.58 1.47 1.37 1.21 1.18 1.16 1.15 1.45 1.87 2.27 2.01 2.37 3.08 3.73 4.29 4.63 4.25 3.41 2.79 2.32 1.92 1.67 1.42 1.11 0.98 0.87 0.77 0.67
2.32 2.61 2.40 2.66 2.56 2.42 2.25 2.23 2.32 2.35 2.09 2.34 2.54 2.07 1.57 1.32 1.23 1.10 1.11 1.20 1.14 1.23 1.52 1.95 2.22 2.33 2.16 2.14 2.48 3.05 4.00 4.37 4.08 3.50 2.98 2.53 2.21 1.90 1.47 1.23 1.10 0.96 0.88
2.42 2.26 2.42 2.26 2.20 2.26 2.08 1.98 2.16 2.16 1.92 2.26 2.35 2.29 1.74 1.51 1.27 0.90 1.02 1.13 1.22 1.45 1.55 1.68 2.02 2.26 2.15 2.37 1.95 1.95 2.81 3.60 4.13 4.06 3.56 3.01 2.57 2.16 1.80 1.55 1.33 1.09 0.94
2.64 2.50 2.39 2.18 2.09 1.93 1.96 1.98 2.05 2.08 1.98 1.99 2.06 2.22 1.81 1.47 1.27 0.97 0.97 1.15 1.43 1.67 1.65 1.71 1.70 1.87 1.94 2.19 2.23 2.08 1.99 2.39 3.20 4.10 4.22 3.59 2.82 2.20 1.84 1.78 1.68 1.41 1.18
2.84 2.58 2.40 2.16 1.96 1.82 1.95 1.68 1.78 2.04 2.10 1.85 1.86 1.83 1.72 1.79 1.75 1.41 1.07 1.00 1.27 1.46 1.53 1.43 1.49 1.67 1.86 2.13 2.31 2.39 2.14 2.04 2.45 3.34 3.94 3.89 3.35 2.68 2.20 2.16 2.39 2.29 1.84
2.61 2.32 2.21 2.13 1.95 1.79 1.78 1.74 1.96 1.97 1.93 1.84 1.89 1.87 1.94 2.05 1.89 1.76 1.46 1.37 1.45 1.40 1.37 1.35 1.44 1.55 1.79 2.10 2.43 2.52 2.73 2.41 2.18 2.32 2.76 3.13 3.28 3.04 2.67 2.65 3.12 3.41 3.06
2.25 2.11 2.03 2.05 1.90 1.77 1.75 1.75 1.86 1.93 2.00 2.05 2.02 1.97 2.01 1.98 1.98 2.15 1.90 1.76 1.71 1.49 1.46 1.48 1.56 1.69 1.85 2.06 2.13 2.35 2.52 2.56 2.37 2.22 2.22 2.36 2.61 2.81 2.91 3.06 3.41 3.78 3.92
1.79 1.81 1.89 1.97 1.81 1.75 1.82 1.94 1.90 1.86 1.96 2.04 1.97 2.01 2.07 2.00 2.10 2.25 2.21 1.97 1.81 1.63 1.70 1.71 1.69 1.90 1.94 2.20 2.43 2.37 2.10 2.15 2.09 2.01 1.94 1.92 1.97 2.21 2.42 2.61 2.99 3.38 3.74
1.62 1.68 1.87 1.92 1.83 1.75 1.73 2.01 2.00 1.99 2.05 2.04 1.92 2.15 2.19 2.01 2.20 2.41 2.51 2.52 2.26 2.11 2.17 2.19 1.95 1.93 2.04 2.19 2.41 2.27 2.04 1.97 1.66 1.54 1.51 1.53 1.58 1.69 1.82 1.99 2.21 2.42 2.72
1.70 1.77 1.83 1.98 2.04 2.07 2.09 2.21 2.13 2.14 2.30 2.28 2.21 2.34 2.34 2.22 2.24 2.37 2.59 2.77 2.81 2.63 2.53 2.48 2.19 2.07 2.03 2.01 2.14 2.05 2.11 1.96 1.53 1.30 1.21 1.17 1.16 1.20 1.28 1.42 1.61 1.78 1.93
1.80 1.84 1.84 1.90 2.00 2.09 2.15 2.28 2.25 2.31 2.49 2.51 2.56 2.64 2.53 2.29 2.35 2.42 2.56 2.82 3.06 3.08 2.86 2.52 2.31 2.17 2.15 1.89 1.93 1.76 1.80 1.71 1.36 1.22 1.12 1.06 1.01 1.00 1.04 1.10 1.20 1.35 1.49
1.78 1.83 1.83 1.80 1.78 1.91 2.12 2.31 2.29 2.43 2.55 2.59 2.59 2.50 2.40 2.43 2.56 2.48 2.59 2.74 2.94 3.14 2.92 2.62 2.51 2.46 2.43 2.24 2.06 1.75 1.54 1.41 1.27 1.31 1.18 1.06 1.02 1.02 1.04 1.09 1.13 1.19 1.30
1.86 1.83 1.81 1.78 1.73 1.82 2.08 2.26 2.37 2.63 2.76 2.66 2.57 2.52 2.41 2.50 2.59 2.54 2.59 2.57 2.62 2.89 2.84 2.66 2.61 2.65 2.53 2.30 2.18 1.96 1.62 1.47 1.44 1.50 1.35 1.20 1.13 1.11 1.09 1.09 1.15 1.21 1.30
1.79 1.75 1.77 1.82 1.93 2.04 2.23 2.37 2.48 2.67 2.65 2.54 2.54 2.45 2.33 2.38 2.34 2.40 2.44 2.40 2.37 2.46 2.61 2.55 2.47 2.55 2.48 2.28 2.20 2.05 1.92 1.99 1.80 1.63 1.49 1.35 1.25 1.19 1.16 1.09 1.13 1.19 1.31
1.53 1.59 1.79 2.02 2.19 2.32 2.40 2.45 2.45 2.44 2.44 2.35 2.25 2.16 2.15 2.23 2.29 2.28 2.20 2.19 2.24 2.36 2.41 2.42 2.42 2.53 2.55 2.52 2.39 2.25 2.24 2.22 2.06 1.65 1.54 1.35 1.25 1.13 1.06 0.99 1.01 1.16 1.31
1.50 1.71 1.90 2.01 2.06 2.12 2.20 2.31 2.31 2.24 2.20 2.11 2.00 1.81 1.83 2.11 2.24 2.18 2.00 2.07 2.18 2.27 2.32 2.41 2.47 2.57 2.63 2.75 2.52 2.25 2.20 2.27 2.17 1.95 1.78 1.55 1.40 1.28 1.23 1.19 1.11 1.12 1.18
1.68 1.86 1.89 1.88 1.84 1.61 1.71 1.83 1.86 1.88 1.87 1.84 1.74 1.68 1.69 1.78 1.78 1.80 1.77 1.76 1.82 1.93 2.12 2.37 2.49 2.49 2.46 2.56 2.61 2.48 2.37 2.32 2.30 2.24 2.27 2.15 1.82 1.72 1.61 1.49 1.37 1.12 1.00
1.85 1.97 1.95 1.90 1.79 1.72 1.62 1.51 1.49 1.54 1.67 1.69 1.70 1.74 1.51 1.39 1.50 1.53 1.62 1.58 1.53 1.62 1.74 1.99 2.19 2.21 2.28 2.29 2.53 2.54 2.57 2.63 2.61 2.57 2.56 2.56 2.20 1.92 1.71 1.64 1.53 1.21 1.04
2.07 2.09 2.04 1.97 1.92 1.86 1.75 1.54 1.50 1.46 1.58 1.61 1.60 1.60 1.58 1.50 1.47 1.57 1.63 1.57 1.44 1.40 1.37 1.35 1.57 1.85 2.06 2.26 2.31 2.37 2.48 2.54 2.55 2.39 2.35 2.44 2.29 2.14 1.83 1.56 1.44 1.25 1.07
2.19 2.15 2.19 2.11 2.04 2.07 1.91 1.58 1.42 1.38 1.56 1.59 1.58 1.55 1.52 1.48 1.52 1.40 1.37 1.39 1.37 1.33 1.18 1.18 1.26 1.47 1.66 1.71 1.89 2.13 2.32 2.30 2.25 2.05 1.87 1.98 2.05 2.07 2.03 1.80 1.44 1.32 1.13
2.23 2.20 2.18 2.19 2.12 2.12 2.02 1.53 1.30 1.30 1.50 1.54 1.61 1.58 1.49 1.36 1.33 1.21 1.19 1.33 1.30 1.28 1.28 1.20 1.12 1.14 1.22 1.35 1.41 1.47 1.75 1.95 1.88 1.84 1.61 1.52 1.51 1.61 1.78 1.64 1.39 1.29 1.25

GEFSMA_prec_meanprecacc_222.txt.gz
Total_Precipitation_Accumulation
2.28 2.37 2.36 2.29 2.13 2.46 2.89 3.13 2.83 3.11 3.10 2.67 2.31 2.18 2.18 2.15 2.35 2.58 2.42 2.56 2.50 2.46 2.71 2.78 2.60 2.35 2.18 1.83 1.54 1.33 1.16 1.10 1.03 0.85 0.71 0.69 0.63 0.57 0.54 0.53 0.51 0.48 0.45
2.84 2.90 2.72 2.62 2.37 2.38 2.67 2.88 2.86 3.11 2.98 2.82 2.19 2.07 2.05 2.20 2.38 2.45 2.45 2.89 2.85 2.61 2.63 2.83 2.91 2.74 2.55 2.39 2.05 1.74 1.51 1.38 1.27 1.01 0.80 0.74 0.71 0.65 0.61 0.62 0.65 0.60 0.49
3.34 3.23 3.01 2.66 2.50 2.55 2.71 2.66 2.67 2.74 2.59 2.52 2.27 2.32 2.27 2.18 2.11 2.17 2.31 2.53 2.45 2.29 2.32 2.47 2.78 2.99 3.15 3.15 2.89 2.66 2.18 1.75 1.52 1.23 0.96 0.78 0.69 0.63 0.62 0.64 0.71 0.69 0.56
3.22 3.19 2.89 2.50 2.56 2.62 2.62 2.66 2.51 2.57 2.59 2.61 2.59 2.40 2.45 2.35 1.91 1.93 2.02 1.97 2.07 1.90 2.08 2.25 2.44 2.70 3.25 3.73 3.95 3.86 3.27 2.44 1.89 1.56 1.28 1.02 0.84 0.71 0.63 0.63 0.70 0.69 0.56
3.06 3.17 2.87 2.74 2.67 2.65 2.49 2.26 2.59 2.75 2.77 2.77 2.50 2.37 2.16 1.96 1.72 1.56 1.53 1.40 1.58 1.76 1.98 2.04 2.22 2.36 2.91 3.78 4.56 4.77 4.37 3.44 2.68 2.17 1.86 1.55 1.29 1.06 0.88 0.81 0.77 0.69 0.59
2.73 2.91 2.66 2.62 2.74 2.78 2.56 2.55 2.80 2.82 2.54 2.61 2.31 2.16 1.97 1.63 1.51 1.41 1.25 1.20 1.19 1.17 1.49 1.93 2.34 2.09 2.46 3.18 3.85 4.45 4.82 4.44 3.61 2.99 2.52 2.14 1.89 1.62 1.28 1.12 0.98 0.85 0.73
2.38 2.70 2.47 2.73 2.62 2.49 2.33 2.30 2.39 2.41 2.16 2.40 2.61 2.13 1.63 1.38 1.29 1.16 1.15 1.23 1.17 1.26 1.56 1.99 2.27 2.39 2.23 2.22 2.58 3.18 4.19 4.60 4.28 3.71 3.21 2.75 2.39 2.09 1.66 1.40 1.22 1.05 0.95
2.47 2.33 2.50 2.33 2.27 2.33 2.16 2.05 2.24 2.23 1.99 2.34 2.44 2.38 1.82 1.58 1.33 0.95 1.07 1.18 1.27 1.51 1.60 1.72 2.07 2.35 2.25 2.50 2.09 2.07 3.02 3.86 4.41 4.34 3.80 3.19 2.70 2.29 1.93 1.70 1.45 1.18 1.02
2.68 2.54 2.44 2.24 2.16 1.99 2.04 2.08 2.15 2.18 2.09 2.10 2.15 2.33 1.93 1.57 1.34 1.02 1.02 1.20 1.48 1.72 1.70 1.77 1.78 1.96 2.03 2.30 2.34 2.18 2.13 2.53 3.37 4.26 4.37 3.74 2.94 2.32 1.96 1.92 1.82 1.54 1.29
2.86 2.59 2.42 2.19 2.00 1.86 2.02 1.75 1.85 2.14 2.21 1.95 1.95 1.90 1.81 1.89 1.84 1.48 1.13 1.05 1.31 1.50 1.58 1.50 1.58 1.75 1.94 2.22 2.38 2.44 2.20 2.11 2.53 3.45 4.06 4.02 3.49 2.83 2.36 2.30 2.53 2.42 1.95
2.62 2.34 2.22 2.14 1.98 1.83 1.81 1.78 2.02 2.04 2.00 1.93 1.96 1.92 2.01 2.13 1.97 1.85 1.53 1.42 1.50 1.45 1.44 1.43 1.50 1.62 1.86 2.17 2.49 2.55 2.76 2.44 2.22 2.40 2.84 3.24 3.42 3.20 2.84 2.84 3.33 3.60 3.23
2.28 2.13 2.04 2.07 1.93 1.80 1.78 1.78 1.91 1.98 2.05 2.12 2.10 2.04 2.09 2.06 2.07 2.26 1.99 1.81 1.77 1.54 1.51 1.53 1.60 1.73 1.89 2.11 2.16 2.38 2.55 2.61 2.45 2.32 2.31 2.46 2.73 2.95 3.07 3.24 3.61 4.00 4.16
1.81 1.82 1.90 1.99 1.83 1.77 1.84 1.97 1.95 1.90 2.01 2.11 2.03 2.07 2.13 2.07 2.20 2.37 2.30 2.02 1.87 1.67 1.73 1.75 1.73 1.95 1.99 2.25 2.48 2.42 2.16 2.22 2.18 2.11 2.04 2.03 2.07 2.33 2.58 2.79 3.19 3.63 4.05
1.64 1.69 1.88 1.94 1.85 1.78 1.75 2.04 2.04 2.03 2.09 2.08 1.96 2.20 2.25 2.08 2.27 2.49 2.59 2.60 2.32 2.16 2.24 2.26 2.03 2.01 2.11 2.24 2.47 2.33 2.10 2.06 1.75 1.64 1.60 1.62 1.65 1.76 1.91 2.11 2.37 2.61 2.90
1.71 1.78 1.84 2.00 2.07 2.11 2.13 2.27 2.17 2.17 2.34 2.32 2.25 2.39 2.40 2.27 2.29 2.42 2.67 2.86 2.88 2.71 2.61 2.56 2.29 2.17 2.13 2.10 2.23 2.12 2.18 2.05 1.61 1.36 1.26 1.23 1.22 1.26 1.34 1.49 1.68 1.86 2.01
1.82 1.85 1.86 1.93 2.03 2.14 2.20 2.34 2.31 2.36 2.54 2.56 2.60 2.68 2.56 2.32 2.38 2.45 2.61 2.88 3.13 3.16 2.92 2.58 2.36 2.24 2.22 1.97 2.01 1.83 1.85 1.76 1.41 1.27 1.18 1.11 1.06 1.04 1.07 1.14 1.24 1.41 1.55
1.79 1.85 1.86 1.83 1.81 1.94 2.15 2.34 2.32 2.47 2.59 2.64 2.62 2.53 2.42 2.45 2.58 2.51 2.63 2.79 3.01 3.22 3.00 2.69 2.56 2.50 2.48 2.27 2.08 1.77 1.56 1.45 1.31 1.35 1.21 1.09 1.05 1.05 1.06 1.11 1.17 1.24 1.37
1.87 1.84 1.82 1.79 1.75 1.84 2.10 2.28 2.39 2.65 2.78 2.68 2.60 2.54 2.43 2.52 2.61 2.57 2.63 2.62 2.68 2.96 2.90 2.72 2.67 2.70 2.57 2.34 2.21 1.99 1.65 1.50 1.47 1.53 1.37 1.22 1.14 1.13 1.11 1.12 1.19 1.26 1.36
1.79 1.76 1.78 1.83 1.94 2.05 2.24 2.38 2.49 2.68 2.65 2.55 2.56 2.47 2.36 2.41 2.37 2.43 2.46 2.44 2.41 2.51 2.67 2.60 2.52 2.60 2.52 2.32 2.24 2.08 1.95 2.02 1.83 1.66 1.51 1.37 1.27 1.22 1.21 1.15 1.18 1.25 1.37
1.54 1.60 1.80 2.03 2.20 2.33 2.41 2.45 2.46 2.44 2.44 2.36 2.26 2.17 2.17 2.26 2.32 2.31 2.24 2.22 2.28 2.41 2.48 2.49 2.48 2.57 2.59 2.55 2.41 2.27 2.28 2.25 2.08 1.67 1.55 1.38 1.28 1.18 1.11 1.05 1.07 1.21 1.36
1.51 1.72 1.90 2.01 2.06 2.12 2.20 2.31 2.31 2.25 2.21 2.12 2.01 1.83 1.85 2.14 2.26 2.23 2.06 2.13 2.22 2.32 2.37 2.46 2.51 2.61 2.67 2.79 2.54 2.27 2.23 2.31 2.19 1.97 1.80 1.57 1.43 1.31 1.27 1.22 1.15 1.16 1.21
1.69 1.87 1.90 1.88 1.85 1.61 1.71 1.83 1.87 1.89 1.89 1.85 1.75 1.69 1.71 1.80 1.80 1.84 1.83 1.83 1.90 1.98 2.17 2.41 2.52 2.53 2.50 2.59 2.64 2.51 2.41 2.36 2.33 2.27 2.29 2.18 1.85 1.75 1.64 1.51 1.40 1.15 1.02
1.87 1.98 1.96 1.90 1.79 1.72 1.62 1.51 1.49 1.54 1.67 1.70 1.72 1.76 1.55 1.42 1.53 1.56 1.67 1.64 1.59 1.66 1.77 2.02 2.22 2.24 2.31 2.32 2.55 2.56 2.61 2.67 2.65 2.60 2.60 2.62 2.27 1.98 1.75 1.67 1.57 1.24 1.07
2.08 2.10 2.06 1.98 1.92 1.86 1.76 1.54 1.50 1.46 1.59 1.63 1.62 1.64 1.61 1.53 1.51 1.60 1.67 1.62 1.48 1.43 1.40 1.37 1.59 1.87 2.07 2.28 2.33 2.39 2.50 2.57 2.57 2.43 2.40 2.50 2.35 2.19 1.88 1.60 1.47 1.28 1.10
2.20 2.16 2.20 2.11 2.05 2.08 1.92 1.58 1.43 1.40 1.57 1.60 1.59 1.56 1.53 1.49 1.54 1.42 1.39 1.42 1.40 1.35 1.20 1.19 1.27 1.48 1.67 1.72 1.90 2.14 2.35 2.33 2.29 2.10 1.93 2.05 2.12 2.12 2.08 1.83 1.46 1.33 1.13
2.24 2.20 2.18 2.19 2.13 2.12 2.02 1.53 1.30 1.31 1.50 1.55 1.61 1.59 1.49 1.36 1.33 1.22 1.21 1.34 1.32 1.29 1.29 1.21 1.12 1.15 1.22 1.35 1.42 1.49 1.78 2.00 1.94 1.91 1.67 1.58 1.57 1.66 1.81 1.66 1.40 1.30 1.26

GEFSMA_prec_meanprecacc_228.txt.gz
Total_Precipitation_Accumulation
2.38 2.47 2.46 2.39 2.19 2.53 2.97 3.20 2.90 3.17 3.16 2.73 2.36 2.22 2.22 2.18 2.37 2.61 2.46 2.59 2.52 2.47 2.74 2.82 2.64 2.41 2.22 1.88 1.61 1.41 1.21 1.13 1.06 0.87 0.73 0.71 0.66 0.59 0.57 0.56 0.54 0.51 0.48
2.95 3.00 2.83 2.73 2.43 2.43 2.72 2.94 2.93 3.22 3.07 2.89 2.27 2.15 2.12 2.25 2.42 2.49 2.50 2.95 2.89 2.64 2.67 2.88 2.97 2.82 2.63 2.45 2.12 1.82 1.58 1.43 1.32 1.05 0.83 0.77 0.73 0.67 0.64 0.66 0.70 0.64 0.52
3.45 3.33 3.12 2.75 2.57 2.61 2.75 2.69 2.72 2.82 2.69 2.62 2.37 2.41 2.34 2.24 2.16 2.24 2.39 2.61 2.53 2.35 2.37 2.53 2.84 3.06 3.23 3.23 2.97 2.73 2.24 1.81 1.58 1.29 1.01 0.82 0.72 0.66 0.64 0.67 0.75 0.72 0.59
3.29 3.29 2.99 2.58 2.63 2.68 2.68 2.72 2.57 2.65 2.67 2.71 2.66 2.45 2.49 2.40 1.97 2.02 2.11 2.06 2.17 2.00 2.17 2.32 2.50 2.76 3.32 3.82 4.06 3.97 3.36 2.52 1.98 1.65 1.37 1.10 0.89 0.76 0.67 0.66 0.74 0.74 0.59
3.10 3.24 2.94 2.81 2.75 2.73 2.56 2.31 2.67 2.86 2.89 2.87 2.54 2.42 2.20 2.01 1.79 1.62 1.62 1.49 1.68 1.88 2.09 2.15 2.31 2.43 2.98 3.88 4.68 4.90 4.49 3.55 2.79 2.30 2.00 1.69 1.43 1.17 0.95 0.87 0.83 0.75 0.65
2.81 3.01 2.74 2.68 2.80 2.87 2.66 2.63 2.90 2.97 2.68 2.72 2.37 2.24 2.04 1.68 1.58 1.49 1.36 1.32 1.30 1.28 1.62 2.08 2.47 2.20 2.53 3.25 3.93 4.56 4.94 4.57 3.74 3.12 2.65 2.29 2.03 1.74 1.38 1.21 1.08 0.97 0.87
2.44 2.79 2.56 2.81 2.69 2.60 2.43 2.38 2.48 2.53 2.28 2.51 2.73 2.24 1.72 1.45 1.37 1.28 1.27 1.33 1.25 1.35 1.66 2.09 2.37 2.51 2.33 2.27 2.62 3.22 4.26 4.69 4.39 3.83 3.35 2.89 2.50 2.19 1.76 1.50 1.34 1.17 1.07
2.51 2.39 2.58 2.40 2.36 2.44 2.26 2.15 2.34 2.34 2.11 2.45 2.56 2.51 1.94 1.69 1.42 1.02 1.13 1.26 1.33 1.58 1.66 1.79 2.15 2.44 2.36 2.62 2.16 2.12 3.08 3.93 4.51 4.49 3.96 3.33 2.82 2.38 2.01 1.79 1.54 1.28 1.13
2.71 2.59 2.49 2.29 2.22 2.06 2.14 2.18 2.24 2.27 2.19 2.19 2.25 2.44 2.07 1.71 1.44 1.09 1.07 1.27 1.53 1.78 1.77 1.83 1.85 2.05 2.15 2.45 2.43 2.22 2.18 2.59 3.44 4.37 4.50 3.87 3.08 2.44 2.06 2.00 1.92 1.64 1.40
2.87 2.61 2.44 2.22 2.05 1.91 2.09 1.83 1.94 2.23 2.32 2.05 2.04 2.00 1.92 2.00 1.93 1.56 1.20 1.12 1.37 1.56 1.63 1.55 1.64 1.83 2.05 2.32 2.46 2.50 2.24 2.16 2.61 3.54 4.17 4.14 3.61 2.95 2.47 2.41 2.64 2.54 2.07
2.64 2.34 2.24 2.17 2.01 1.87 1.86 1.83 2.09 2.11 2.09 2.02 2.07 2.03 2.13 2.26 2.08 1.93 1.60 1.50 1.59 1.53 1.50 1.49 1.56 1.70 1.93 2.23 2.55 2.59 2.80 2.49 2.31 2.53 2.99 3.36 3.51 3.28 2.93 2.97 3.48 3.75 3.36
2.30 2.14 2.06 2.11 1.96 1.83 1.81 1.82 1.96 2.02 2.12 2.20 2.19 2.14 2.19 2.18 2.21 2.40 2.09 1.89 1.84 1.62 1.57 1.60 1.68 1.80 1.94 2.15 2.20 2.41 2.58 2.64 2.50 2.40 2.43 2.56 2.81 3.03 3.15 3.35 3.76 4.15 4.33
1.85 1.85 1.93 2.02 1.86 1.80 1.86 2.00 2.00 1.95 2.07 2.17 2.10 2.16 2.22 2.17 2.31 2.50 2.43 2.11 1.96 1.75 1.80 1.80 1.78 1.99 2.02 2.29 2.52 2.45 2.19 2.26 2.22 2.15 2.11 2.10 2.14 2.39 2.64 2.87 3.29 3.76 4.21
1.65 1.71 1.90 1.96 1.87 1.80 1.78 2.09 2.08 2.08 2.16 2.15 2.04 2.31 2.36 2.16 2.35 2.58 2.70 2.71 2.43 2.25 2.30 2.30 2.06 2.04 2.15 2.27 2.50 2.36 2.13 2.11 1.80 1.70 1.67 1.67 1.70 1.81 1.96 2.17 2.44 2.72 3.02
1.72 1.79 1.86 2.03 2.10 2.15 2.17 2.32 2.24 2.23 2.40 2.38 2.33 2.48 2.48 2.33 2.35 2.48 2.75 2.95 2.97 2.79 2.69 2.62 2.33 2.20 2.15 2.13 2.26 2.15 2.22 2.10 1.66 1.39 1.29 1.26 1.24 1.28 1.37 1.53 1.72 1.92 2.09
1.83 1.86 1.87 1.95 2.06 2.17 2.24 2.40 2.38 2.43 2.60 2.62 2.67 2.74 2.60 2.36 2.44 2.51 2.68 2.95 3.21 3.23 2.98 2.63 2.41 2.28 2.26 1.99 2.03 1.84 1.88 1.79 1.46 1.30 1.20 1.14 1.09 1.07 1.10 1.17 1.29 1.47 1.61
1.81 1.86 1.87 1.84 1.83 1.97 2.19 2.39 2.37 2.52 2.64 2.70 2.69 2.59 2.47 2.51 2.64 2.56 2.70 2.86 3.09 3.31 3.07 2.75 2.61 2.55 2.52 2.31 2.11 1.80 1.58 1.47 1.35 1.39 1.24 1.12 1.08 1.07 1.09 1.14 1.21 1.30 1.41
1.88 1.84 1.83 1.80 1.76 1.86 2.12 2.31 2.42 2.67 2.81 2.73 2.65 2.59 2.47 2.57 2.66 2.62 2.69 2.70 2.76 3.04 2.96 2.77 2.72 2.75 2.62 2.38 2.26 2.04 1.68 1.52 1.52 1.60 1.43 1.26 1.18 1.17 1.14 1.15 1.22 1.28 1.38
1.80 1.76 1.78 1.84 1.96 2.07 2.26 2.40 2.51 2.69 2.66 2.57 2.59 2.51 2.39 2.45 2.41 2.47 2.51 2.49 2.48 2.58 2.74 2.66 2.58 2.65 2.57 2.36 2.27 2.11 1.98 2.07 1.88 1.73 1.57 1.42 1.32 1.27 1.25 1.18 1.20 1.26 1.38
1.55 1.61 1.82 2.05 2.21 2.34 2.42 2.46 2.47 2.45 2.45 2.37 2.28 2.20 2.20 2.29 2.35 2.35 2.28 2.27 2.33 2.46 2.54 2.55 2.53 2.62 2.63 2.59 2.45 2.32 2.32 2.29 2.14 1.72 1.59 1.41 1.32 1.21 1.14 1.07 1.08 1.22 1.38
1.52 1.73 1.91 2.02 2.07 2.13 2.21 2.32 2.32 2.26 2.23 2.14 2.03 1.85 1.88 2.16 2.29 2.26 2.09 2.16 2.25 2.35 2.42 2.52 2.57 2.66 2.72 2.84 2.59 2.32 2.26 2.35 2.23 2.01 1.83 1.59 1.45 1.33 1.28 1.23 1.16 1.17 1.23
1.71 1.88 1.91 1.89 1.85 1.61 1.71 1.83 1.87 1.90 1.90 1.87 1.77 1.71 1.72 1.82 1.83 1.86 1.85 1.85 1.91 2.00 2.20 2.45 2.57 2.56 2.54 2.63 2.69 2.55 2.45 2.40 2.37 2.30 2.31 2.20 1.88 1.78 1.66 1.52 1.40 1.16 1.03
1.89 2.00 1.97 1.91 1.80 1.73 1.63 1.51 1.49 1.54 1.67 1.70 1.72 1.77 1.56 1.42 1.54 1.57 1.68 1.66 1.61 1.68 1.80 2.04 2.25 2.27 2.35 2.35 2.58 2.60 2.64 2.70 2.68 2.62 2.61 2.65 2.31 2.01 1.77 1.69 1.58 1.25 1.08
2.10 2.12 2.07 1.99 1.92 1.86 1.76 1.54 1.50 1.46 1.59 1.63 1.63 1.65 1.62 1.54 1.52 1.61 1.68 1.64 1.51 1.45 1.42 1.39 1.62 1.90 2.10 2.31 2.35 2.41 2.53 2.61 2.61 2.46 2.42 2.52 2.37 2.22 1.90 1.62 1.49 1.29 1.10
2.21 2.17 2.21 2.12 2.05 2.08 1.92 1.58 1.43 1.40 1.57 1.61 1.60 1.57 1.54 1.51 1.55 1.42 1.40 1.44 1.43 1.39 1.24 1.23 1.30 1.51 1.70 1.74 1.92 2.16 2.37 2.36 2.32 2.12 1.95 2.07 2.14 2.14 2.10 1.85 1.47 1.33 1.14
2.25 2.21 2.19 2.20 2.13 2.13 2.02 1.53 1.30 1.31 1.50 1.55 1.62 1.60 1.49 1.37 1.33 1.22 1.22 1.37 1.35 1.33 1.33 1.26 1.16 1.18 1.24 1.37 1.43 1.50 1.80 2.01 1.95 1.92 1.68 1.59 1.59 1.68 1.84 1.69 1.42 1.31 1.27

GEFSMA_prec_meanprecacc_234.txt.gz
Total_Precipitation_Accumulation
2.42 2.50 2.49 2.42 2.23 2.57 3.01 3.26 2.96 3.23 3.22 2.81 2.49 2.38 2.34 2.28 2.47 2.69 2.53 2.66 2.59 2.56 2.84 2.94 2.74 2.49 2.30 1.95 1.67 1.47 1.27 1.18 1.09 0.89 0.75 0.73 0.68 0.62 0.59 0.58 0.56 0.52 0.49
2.98 3.04 2.87 2.78 2.46 2.46 2.75 3.00 3.01 3.35 3.19 3.02 2.42 2.36 2.30 2.39 2.56 2.61 2.57 3.02 2.97 2.71 2.74 2.96 3.06 2.94 2.75 2.56 2.21 1.89 1.64 1.49 1.38 1.09 0.85 0.78 0.75 0.70 0.66 0.68 0.73 0.66 0.53
3.48 3.36 3.15 2.78 2.60 2.63 2.78 2.74 2.79 2.91 2.80 2.72 2.46 2.52 2.48 2.40 2.32 2.38 2.49 2.71 2.63 2.42 2.45 2.62 2.95 3.18 3.34 3.34 3.07 2.82 2.31 1.85 1.63 1.34 1.04 0.85 0.75 0.69 0.68 0.71 0.78 0.75 0.61
3.31 3.31 3.01 2.61 2.66 2.70 2.71 2.78 2.65 2.72 2.75 2.78 2.72 2.50 2.56 2.52 2.12 2.13 2.22 2.20 2.31 2.10 2.26 2.42 2.61 2.88 3.43 3.93 4.17 4.08 3.43 2.57 2.03 1.70 1.42 1.14 0.94 0.80 0.72 0.72 0.80 0.79 0.62
3.12 3.26 2.96 2.83 2.78 2.75 2.60 2.36 2.72 2.91 2.93 2.91 2.59 2.45 2.23 2.05 1.84 1.69 1.68 1.55 1.75 1.96 2.18 2.26 2.43 2.56 3.12 4.01 4.83 5.09 4.66 3.68 2.90 2.38 2.08 1.78 1.50 1.23 1.00 0.92 0.88 0.81 0.70
2.84 3.04 2.76 2.70 2.82 2.89 2.69 2.66 2.93 2.99 2.72 2.76 2.41 2.28 2.10 1.73 1.63 1.55 1.42 1.39 1.40 1.37 1.71 2.17 2.56 2.31 2.65 3.37 4.07 4.71 5.12 4.76 3.90 3.26 2.76 2.38 2.11 1.81 1.43 1.26 1.15 1.04 0.95
2.48 2.82 2.58 2.84 2.72 2.62 2.45 2.40 2.51 2.56 2.32 2.54 2.76 2.28 1.77 1.51 1.44 1.34 1.33 1.40 1.33 1.41 1.73 2.18 2.47 2.61 2.44 2.41 2.79 3.34 4.38 4.82 4.53 3.95 3.44 2.98 2.59 2.28 1.84 1.57 1.40 1.23 1.15
2.56 2.42 2.59 2.42 2.38 2.46 2.28 2.17 2.36 2.36 2.13 2.47 2.59 2.54 1.97 1.74 1.49 1.07 1.18 1.31 1.40 1.63 1.70 1.85 2.24 2.55 2.46 2.72 2.29 2.20 3.14 4.02 4.61 4.58 4.05 3.42 2.91 2.48 2.10 1.87 1.62 1.35 1.20
2.74 2.61 2.50 2.31 2.25 2.08 2.16 2.20 2.26 2.30 2.22 2.22 2.28 2.47 2.11 1.75 1.47 1.13 1.14 1.35 1.65 1.87 1.85 1.93 1.96 2.17 2.22 2.52 2.50 2.29 2.25 2.68 3.54 4.46 4.59 3.96 3.16 2.52 2.14 2.10 2.00 1.72 1.47
2.88 2.62 2.45 2.24 2.07 1.93 2.12 1.85 1.96 2.25 2.34 2.08 2.08 2.05 1.97 2.05 1.97 1.59 1.27 1.19 1.45 1.66 1.75 1.66 1.73 1.90 2.11 2.38 2.51 2.55 2.30 2.22 2.67 3.61 4.23 4.21 3.69 3.04 2.58 2.52 2.75 2.64 2.15
2.65 2.36 2.25 2.18 2.03 1.89 1.89 1.85 2.11 2.14 2.11 2.05 2.11 2.08 2.18 2.31 2.13 1.97 1.65 1.56 1.67 1.65 1.61 1.58 1.63 1.77 2.00 2.28 2.59 2.63 2.85 2.53 2.36 2.58 3.05 3.44 3.62 3.39 3.06 3.11 3.62 3.89 3.52
2.32 2.16 2.07 2.12 1.98 1.85 1.84 1.85 1.99 2.05 2.15 2.24 2.24 2.20 2.24 2.22 2.24 2.44 2.12 1.92 1.88 1.66 1.63 1.65 1.73 1.85 1.98 2.20 2.25 2.46 2.62 2.68 2.54 2.45 2.51 2.66 2.93 3.16 3.29 3.50 3.89 4.30 4.49
1.86 1.87 1.94 2.03 1.87 1.81 1.88 2.02 2.02 1.98 2.12 2.22 2.15 2.20 2.27 2.21 2.34 2.54 2.47 2.16 2.00 1.79 1.84 1.83 1.80 2.00 2.03 2.31 2.55 2.49 2.23 2.30 2.26 2.21 2.19 2.21 2.26 2.52 2.80 3.02 3.43 3.89 4.33
1.66 1.72 1.91 1.97 1.89 1.82 1.80 2.12 2.12 2.12 2.20 2.18 2.08 2.35 2.40 2.20 2.39 2.62 2.74 2.75 2.46 2.30 2.36 2.35 2.09 2.05 2.15 2.28 2.52 2.39 2.16 2.15 1.86 1.77 1.75 1.80 1.83 1.92 2.06 2.26 2.54 2.82 3.12
1.73 1.80 1.87 2.04 2.12 2.17 2.19 2.34 2.26 2.25 2.43 2.41 2.36 2.51 2.50 2.36 2.39 2.51 2.78 2.98 2.99 2.81 2.70 2.63 2.35 2.22 2.17 2.14 2.28 2.16 2.24 2.14 1.71 1.46 1.38 1.38 1.36 1.38 1.44 1.58 1.77 1.98 2.14
1.84 1.88 1.89 1.95 2.06 2.17 2.26 2.41 2.39 2.45 2.62 2.64 2.68 2.76 2.63 2.40 2.49 2.55 2.71 2.98 3.23 3.25 3.00 2.64 2.42 2.29 2.28 2.02 2.06 1.87 1.91 1.82 1.50 1.34 1.25 1.20 1.16 1.13 1.15 1.22 1.33 1.52 1.65
1.82 1.87 1.88 1.85 1.84 1.98 2.20 2.40 2.38 2.52 2.64 2.70 2.70 2.61 2.49 2.53 2.67 2.61 2.74 2.89 3.11 3.32 3.08 2.76 2.62 2.56 2.54 2.34 2.17 1.88 1.64 1.51 1.39 1.45 1.30 1.17 1.12 1.11 1.14 1.20 1.26 1.37 1.48
1.89 1.85 1.84 1.81 1.77 1.87 2.13 2.32 2.43 2.68 2.81 2.73 2.65 2.59 2.48 2.58 2.68 2.65 2.71 2.72 2.78 3.06 2.98 2.78 2.73 2.77 2.64 2.40 2.28 2.08 1.73 1.54 1.54 1.64 1.49 1.32 1.23 1.21 1.19 1.19 1.26 1.35 1.45
1.81 1.77 1.79 1.85 1.97 2.09 2.28 2.41 2.51 2.69 2.66 2.57 2.59 2.51 2.40 2.46 2.42 2.48 2.52 2.50 2.49 2.60 2.77 2.68 2.59 2.67 2.58 2.37 2.28 2.12 2.00 2.08 1.90 1.75 1.60 1.46 1.35 1.29 1.28 1.21 1.23 1.30 1.41
1.55 1.62 1.82 2.06 2.22 2.35 2.43 2.48 2.47 2.45 2.45 2.37 2.28 2.20 2.20 2.30 2.36 2.37 2.30 2.28 2.34 2.48 2.57 2.58 2.56 2.64 2.65 2.60 2.46 2.34 2.35 2.31 2.15 1.73 1.61 1.43 1.32 1.22 1.16 1.09 1.10 1.25 1.40
1.53 1.75 1.93 2.03 2.08 2.14 2.22 2.32 2.32 2.27 2.23 2.14 2.03 1.85 1.88 2.17 2.30 2.28 2.11 2.18 2.27 2.37 2.45 2.56 2.60 2.67 2.73 2.86 2.62 2.36 2.30 2.37 2.25 2.02 1.83 1.60 1.45 1.33 1.29 1.25 1.18 1.19 1.24
1.72 1.90 1.92 1.90 1.87 1.62 1.72 1.84 1.87 1.90 1.90 1.87 1.77 1.71 1.72 1.82 1.84 1.88 1.86 1.86 1.92 2.01 2.21 2.47 2.57 2.57 2.55 2.64 2.70 2.58 2.48 2.43 2.40 2.31 2.32 2.21 1.88 1.78 1.67 1.53 1.41 1.17 1.04
1.91 2.02 1.98 1.92 1.82 1.74 1.63 1.52 1.50 1.55 1.68 1.71 1.72 1.77 1.56 1.43 1.55 1.58 1.69 1.66 1.61 1.69 1.81 2.05 2.26 2.28 2.35 2.36 2.59 2.61 2.66 2.72 2.69 2.63 2.62 2.66 2.31 2.01 1.78 1.70 1.60 1.27 1.09
2.12 2.14 2.10 2.01 1.94 1.87 1.77 1.55 1.51 1.47 1.60 1.64 1.63 1.65 1.62 1.54 1.52 1.61 1.69 1.64 1.51 1.46 1.43 1.41 1.63 1.91 2.11 2.32 2.37 2.44 2.57 2.65 2.66 2.49 2.44 2.54 2.38 2.22 1.90 1.62 1.50 1.31 1.11
2.24 2.22 2.26 2.15 2.07 2.10 1.93 1.59 1.44 1.41 1.57 1.61 1.60 1.57 1.54 1.51 1.55 1.42 1.40 1.44 1.43 1.40 1.25 1.24 1.32 1.52 1.71 1.76 1.95 2.21 2.43 2.42 2.37 2.16 1.98 2.09 2.16 2.15 2.10 1.85 1.47 1.34 1.14
2.33 2.33 2.27 2.24 2.17 2.15 2.04 1.54 1.31 1.31 1.50 1.55 1.62 1.60 1.49 1.37 1.33 1.22 1.22 1.37 1.35 1.33 1.34 1.27 1.18 1.20 1.28 1.42 1.49 1.56 1.86 2.07 1.99 1.94 1.69 1.60 1.60 1.69 1.85 1.69 1.42 1.31 1.27

GEFSMA_prec_meanprecacc_240.txt.gz
Total_Precipitation_Accumulation
2.45 2.52 2.51 2.45 2.26 2.60 3.04 3.30 3.00 3.28 3.28 2.86 2.54 2.42 2.39 2.34 2.53 2.73 2.57 2.70 2.65 2.64 2.94 3.06 2.89 2.64 2.43 2.07 1.81 1.57 1.34 1.25 1.14 0.93 0.78 0.76 0.72 0.66 0.63 0.60 0.58 0.54 0.51
3.02 3.06 2.90 2.80 2.48 2.48 2.78 3.03 3.06 3.43 3.27 3.08 2.46 2.40 2.35 2.47 2.65 2.67 2.63 3.09 3.05 2.80 2.84 3.09 3.23 3.12 2.92 2.73 2.37 2.02 1.74 1.58 1.44 1.14 0.90 0.83 0.80 0.75 0.71 0.72 0.77 0.70 0.57
3.52 3.38 3.17 2.81 2.62 2.65 2.83 2.79 2.84 2.96 2.86 2.77 2.51 2.56 2.53 2.48 2.43 2.49 2.62 2.80 2.70 2.51 2.57 2.76 3.12 3.37 3.52 3.53 3.27 2.99 2.45 1.96 1.72 1.42 1.11 0.92 0.82 0.76 0.75 0.76 0.83 0.80 0.67
3.34 3.34 3.04 2.65 2.69 2.72 2.75 2.82 2.69 2.76 2.79 2.81 2.76 2.54 2.60 2.57 2.20 2.23 2.34 2.32 2.41 2.19 2.34 2.54 2.74 3.01 3.59 4.14 4.41 4.32 3.61 2.70 2.15 1.82 1.54 1.24 1.03 0.89 0.80 0.79 0.88 0.88 0.71
3.16 3.30 3.01 2.86 2.80 2.76 2.62 2.39 2.76 2.93 2.94 2.93 2.61 2.48 2.26 2.08 1.91 1.75 1.76 1.64 1.83 2.02 2.23 2.33 2.56 2.71 3.32 4.23 5.03 5.31 4.88 3.87 3.06 2.51 2.22 1.88 1.59 1.31 1.07 0.99 0.96 0.89 0.80
2.86 3.06 2.79 2.71 2.82 2.89 2.70 2.67 2.94 3.00 2.73 2.78 2.42 2.31 2.12 1.76 1.67 1.60 1.47 1.45 1.45 1.42 1.76 2.21 2.62 2.39 2.78 3.56 4.31 4.94 5.36 5.01 4.13 3.46 2.94 2.52 2.22 1.90 1.51 1.34 1.23 1.15 1.06
2.50 2.85 2.59 2.85 2.73 2.63 2.46 2.41 2.53 2.58 2.33 2.55 2.77 2.30 1.80 1.54 1.48 1.39 1.38 1.44 1.38 1.46 1.78 2.23 2.52 2.68 2.54 2.53 2.94 3.56 4.60 5.06 4.75 4.13 3.60 3.16 2.79 2.49 2.02 1.71 1.52 1.33 1.25
2.59 2.44 2.61 2.43 2.39 2.47 2.29 2.18 2.38 2.37 2.14 2.48 2.60 2.56 1.99 1.77 1.53 1.12 1.25 1.37 1.46 1.66 1.73 1.89 2.28 2.60 2.52 2.80 2.37 2.28 3.25 4.18 4.80 4.75 4.19 3.56 3.06 2.63 2.25 2.02 1.75 1.43 1.27
2.76 2.64 2.52 2.33 2.26 2.09 2.17 2.21 2.28 2.32 2.24 2.24 2.29 2.49 2.13 1.76 1.49 1.17 1.18 1.40 1.70 1.90 1.88 1.96 1.99 2.20 2.27 2.57 2.55 2.36 2.33 2.81 3.71 4.64 4.72 4.07 3.27 2.61 2.22 2.18 2.09 1.78 1.53
2.91 2.64 2.47 2.25 2.08 1.95 2.13 1.87 1.97 2.26 2.36 2.10 2.11 2.08 2.00 2.06 1.99 1.62 1.31 1.24 1.50 1.71 1.81 1.72 1.77 1.92 2.12 2.41 2.54 2.59 2.35 2.29 2.76 3.72 4.36 4.34 3.81 3.13 2.66 2.60 2.82 2.71 2.22
2.66 2.37 2.25 2.18 2.04 1.91 1.91 1.87 2.14 2.15 2.12 2.07 2.13 2.12 2.21 2.34 2.16 2.00 1.68 1.59 1.70 1.70 1.65 1.62 1.67 1.80 2.02 2.31 2.61 2.65 2.87 2.57 2.41 2.63 3.11 3.51 3.70 3.48 3.14 3.21 3.71 3.98 3.61
2.32 2.16 2.08 2.13 1.99 1.86 1.86 1.86 2.00 2.06 2.16 2.25 2.26 2.23 2.29 2.26 2.28 2.47 2.15 1.94 1.89 1.68 1.65 1.67 1.76 1.88 2.01 2.22 2.27 2.48 2.64 2.71 2.58 2.49 2.56 2.72 2.99 3.23 3.38 3.60 4.03 4.44 4.64
1.88 1.88 1.95 2.04 1.88 1.82 1.89 2.04 2.03 2.00 2.15 2.25 2.18 2.25 2.33 2.27 2.39 2.58 2.51 2.18 2.00 1.80 1.85 1.85 1.82 2.02 2.05 2.32 2.57 2.52 2.26 2.33 2.27 2.23 2.22 2.25 2.31 2.59 2.89 3.13 3.59 4.09 4.53
1.67 1.73 1.92 1.98 1.90 1.83 1.81 2.14 2.13 2.14 2.22 2.21 2.11 2.39 2.45 2.25 2.45 2.67 2.78 2.78 2.48 2.32 2.37 2.36 2.10 2.06 2.16 2.30 2.54 2.41 2.18 2.17 1.87 1.79 1.78 1.82 1.87 1.98 2.16 2.40 2.69 2.99 3.28
1.73 1.81 1.88 2.05 2.13 2.19 2.21 2.34 2.27 2.27 2.44 2.42 2.37 2.53 2.53 2.40 2.43 2.55 2.80 3.01 3.02 2.83 2.72 2.64 2.36 2.23 2.18 2.15 2.29 2.18 2.25 2.15 1.72 1.47 1.41 1.42 1.41 1.44 1.50 1.66 1.88 2.13 2.30
1.85 1.88 1.90 1.97 2.09 2.20 2.26 2.41 2.39 2.45 2.64 2.65 2.70 2.77 2.65 2.42 2.52 2.58 2.73 3.00 3.25 3.27 3.02 2.65 2.43 2.31 2.30 2.04 2.09 1.89 1.92 1.83 1.51 1.36 1.27 1.22 1.20 1.21 1.22 1.28 1.40 1.63 1.81
1.82 1.87 1.88 1.86 1.85 1.99 2.20 2.41 2.38 2.54 2.66 2.72 2.71 2.62 2.50 2.55 2.70 2.64 2.76 2.91 3.13 3.34 3.10 2.77 2.64 2.58 2.56 2.36 2.19 1.90 1.66 1.52 1.40 1.46 1.31 1.19 1.15 1.15 1.20 1.26 1.32 1.43 1.57
1.89 1.85 1.84 1.81 1.78 1.88 2.15 2.33 2.45 2.69 2.82 2.74 2.66 2.60 2.48 2.59 2.69 2.67 2.73 2.74 2.80 3.07 3.00 2.80 2.75 2.78 2.66 2.43 2.30 2.10 1.75 1.55 1.55 1.65 1.50 1.34 1.25 1.23 1.20 1.21 1.30 1.39 1.48
1.81 1.77 1.79 1.86 1.98 2.10 2.30 2.43 2.53 2.71 2.67 2.57 2.59 2.51 2.40 2.46 2.42 2.49 2.53 2.51 2.50 2.61 2.78 2.70 2.61 2.69 2.60 2.40 2.31 2.14 2.01 2.09 1.91 1.76 1.61 1.46 1.35 1.30 1.28 1.22 1.25 1.35 1.46
1.56 1.63 1.83 2.07 2.23 2.36 2.44 2.49 2.49 2.47 2.46 2.37 2.28 2.20 2.21 2.31 2.37 2.37 2.30 2.29 2.35 2.49 2.59 2.61 2.59 2.67 2.68 2.64 2.49 2.36 2.37 2.32 2.16 1.73 1.61 1.43 1.33 1.23 1.17 1.11 1.13 1.30 1.45
1.55 1.77 1.94 2.05 2.09 2.15 2.23 2.34 2.34 2.28 2.24 2.15 2.04 1.86 1.89 2.18 2.31 2.28 2.12 2.19 2.27 2.38 2.47 2.58 2.62 2.71 2.77 2.91 2.67 2.41 2.32 2.38 2.26 2.03 1.85 1.61 1.46 1.34 1.30 1.26 1.22 1.23 1.28
1.74 1.92 1.93 1.91 1.88 1.64 1.74 1.86 1.89 1.91 1.91 1.88 1.78 1.71 1.73 1.82 1.84 1.89 1.89 1.89 1.94 2.02 2.23 2.49 2.60 2.59 2.57 2.66 2.72 2.59 2.49 2.44 2.41 2.32 2.34 2.23 1.90 1.80 1.68 1.54 1.43 1.19 1.07
1.93 2.04 2.00 1.94 1.83 1.75 1.66 1.54 1.52 1.56 1.69 1.72 1.74 1.79 1.57 1.43 1.55 1.58 1.71 1.70 1.63 1.70 1.81 2.07 2.28 2.30 2.37 2.37 2.60 2.62 2.66 2.73 2.70 2.65 2.64 2.69 2.35 2.05 1.81 1.72 1.62 1.28 1.12
2.17 2.19 2.14 2.04 1.97 1.91 1.81 1.60 1.54 1.50 1.62 1.66 1.65 1.68 1.64 1.55 1.52 1.62 1.69 1.64 1.51 1.46 1.43 1.41 1.64 1.92 2.12 2.33 2.37 2.44 2.57 2.66 2.67 2.52 2.47 2.57 2.41 2.25 1.93 1.64 1.52 1.32 1.13
2.29 2.28 2.31 2.21 2.14 2.17 2.01 1.65 1.49 1.44 1.60 1.64 1.64 1.59 1.55 1.51 1.55 1.43 1.41 1.44 1.43 1.40 1.25 1.24 1.32 1.53 1.72 1.77 1.96 2.22 2.45 2.44 2.40 2.20 2.01 2.12 2.19 2.18 2.12 1.87 1.49 1.35 1.15
2.39 2.40 2.34 2.31 2.21 2.18 2.07 1.58 1.34 1.33 1.52 1.57 1.63 1.60 1.50 1.37 1.34 1.22 1.22 1.37 1.35 1.33 1.34 1.27 1.18 1.20 1.29 1.44 1.52 1.59 1.90 2.10 2.02 1.98 1.73 1.63 1.63 1.72 1.87 1.70 1.43 1.32 1.28

GEFSMA_prec_meanprecacc_246.txt.gz
Total_Precipitation_Accumulation
2.53 2.58 2.57 2.52 2.32 2.66 3.11 3.38 3.08 3.36 3.36 2.95 2.62 2.49 2.46 2.39 2.58 2.80 2.62 2.73 2.69 2.69 3.01 3.16 3.01 2.76 2.54 2.18 1.92 1.70 1.47 1.35 1.23 1.01 0.84 0.80 0.75 0.69 0.66 0.64 0.62 0.58 0.54
3.08 3.11 2.95 2.85 2.52 2.53 2.84 3.11 3.14 3.51 3.34 3.14 2.53 2.45 2.39 2.51 2.70 2.72 2.67 3.13 3.09 2.86 2.91 3.17 3.34 3.26 3.03 2.85 2.53 2.22 1.92 1.74 1.64 1.32 1.01 0.90 0.85 0.79 0.76 0.77 0.82 0.74 0.60
3.58 3.45 3.23 2.86 2.67 2.70 2.90 2.86 2.90 3.03 2.93 2.83 2.58 2.63 2.58 2.54 2.48 2.55 2.69 2.89 2.80 2.58 2.63 2.84 3.22 3.47 3.62 3.66 3.43 3.18 2.62 2.12 1.92 1.60 1.25 1.01 0.88 0.82 0.81 0.82 0.89 0.85 0.71
3.39 3.41 3.10 2.70 2.74 2.78 2.84 2.90 2.75 2.84 2.86 2.88 2.82 2.58 2.63 2.62 2.26 2.30 2.41 2.40 2.51 2.27 2.41 2.59 2.81 3.09 3.71 4.29 4.58 4.51 3.81 2.89 2.31 1.96 1.66 1.33 1.11 0.96 0.86 0.86 0.94 0.94 0.78
3.21 3.37 3.07 2.91 2.83 2.81 2.68 2.44 2.82 2.98 3.00 2.98 2.65 2.52 2.30 2.13 1.97 1.80 1.81 1.68 1.88 2.07 2.30 2.38 2.60 2.78 3.45 4.37 5.18 5.47 5.05 4.05 3.21 2.64 2.33 1.99 1.68 1.38 1.13 1.04 1.01 0.94 0.84
2.89 3.10 2.83 2.75 2.86 2.94 2.75 2.72 3.01 3.06 2.78 2.83 2.45 2.33 2.16 1.80 1.71 1.64 1.52 1.50 1.50 1.46 1.80 2.27 2.70 2.45 2.83 3.64 4.43 5.07 5.48 5.13 4.26 3.59 3.08 2.68 2.35 2.01 1.59 1.40 1.28 1.20 1.12
2.53 2.89 2.64 2.90 2.78 2.68 2.52 2.46 2.58 2.64 2.38 2.60 2.81 2.35 1.85 1.57 1.51 1.42 1.42 1.49 1.43 1.51 1.83 2.28 2.58 2.73 2.59 2.57 3.00 3.63 4.67 5.15 4.87 4.25 3.71 3.28 2.90 2.58 2.10 1.81 1.63 1.46 1.39
2.63 2.49 2.67 2.48 2.44 2.52 2.33 2.23 2.43 2.43 2.18 2.51 2.65 2.64 2.06 1.81 1.56 1.15 1.28 1.42 1.51 1.70 1.76 1.91 2.31 2.63 2.56 2.85 2.41 2.33 3.30 4.25 4.91 4.88 4.31 3.68 3.20 2.78 2.37 2.12 1.85 1.56 1.40
2.81 2.69 2.57 2.38 2.31 2.14 2.21 2.26 2.32 2.37 2.30 2.29 2.35 2.59 2.22 1.84 1.56 1.20 1.20 1.43 1.74 1.95 1.93 2.00 2.02 2.23 2.30 2.61 2.60 2.40 2.37 2.85 3.78 4.74 4.84 4.19 3.39 2.74 2.35 2.28 2.16 1.85 1.60
2.95 2.68 2.51 2.29 2.12 1.99 2.19 1.91 2.00 2.30 2.42 2.16 2.17 2.16 2.08 2.16 2.06 1.67 1.34 1.27 1.54 1.74 1.85 1.75 1.78 1.94 2.15 2.45 2.57 2.62 2.38 2.31 2.80 3.79 4.44 4.43 3.89 3.20 2.72 2.67 2.89 2.78 2.28
2.69 2.39 2.29 2.21 2.07 1.95 1.95 1.91 2.18 2.19 2.18 2.13 2.20 2.18 2.27 2.40 2.23 2.06 1.72 1.62 1.73 1.73 1.68 1.64 1.69 1.81 2.05 2.34 2.65 2.69 2.89 2.58 2.42 2.65 3.14 3.55 3.75 3.53 3.19 3.26 3.78 4.06 3.69
2.34 2.18 2.10 2.16 2.02 1.90 1.90 1.90 2.03 2.10 2.21 2.30 2.32 2.31 2.36 2.34 2.34 2.53 2.21 2.00 1.95 1.71 1.66 1.69 1.78 1.90 2.05 2.27 2.31 2.52 2.68 2.74 2.60 2.51 2.58 2.75 3.03 3.28 3.43 3.66 4.10 4.52 4.72
1.90 1.90 1.97 2.08 1.92 1.86 1.93 2.07 2.07 2.04 2.19 2.29 2.24 2.32 2.40 2.34 2.46 2.63 2.56 2.24 2.04 1.82 1.86 1.86 1.84 2.04 2.08 2.36 2.60 2.55 2.29 2.37 2.31 2.26 2.24 2.26 2.32 2.62 2.92 3.17 3.64 4.16 4.62
1.68 1.74 1.94 2.00 1.93 1.86 1.84 2.19 2.18 2.19 2.28 2.27 2.16 2.45 2.50 2.30 2.51 2.72 2.82 2.83 2.51 2.34 2.39 2.38 2.12 2.09 2.19 2.33 2.56 2.42 2.18 2.18 1.89 1.80 1.78 1.83 1.87 1.99 2.18 2.42 2.73 3.05 3.34
1.75 1.82 1.89 2.07 2.15 2.22 2.24 2.38 2.31 2.31 2.49 2.46 2.41 2.57 2.57 2.44 2.48 2.61 2.85 3.05 3.05 2.85 2.74 2.66 2.38 2.25 2.21 2.18 2.32 2.19 2.26 2.16 1.73 1.48 1.41 1.43 1.42 1.45 1.52 1.68 1.91 2.17 2.33
1.86 1.90 1.91 1.98 2.12 2.24 2.29 2.43 2.42 2.48 2.66 2.67 2.72 2.80 2.68 2.45 2.56 2.62 2.76 3.03 3.27 3.30 3.04 2.67 2.45 2.33 2.32 2.06 2.11 1.91 1.94 1.85 1.52 1.37 1.27 1.23 1.20 1.21 1.23 1.29 1.41 1.65 1.84
1.85 1.89 1.90 1.87 1.87 2.02 2.23 2.42 2.40 2.56 2.69 2.74 2.73 2.64 2.52 2.56 2.72 2.66 2.79 2.94 3.15 3.36 3.12 2.79 2.65 2.59 2.58 2.38 2.21 1.91 1.67 1.54 1.42 1.48 1.33 1.19 1.15 1.16 1.20 1.26 1.33 1.44 1.61
1.90 1.87 1.85 1.83 1.80 1.90 2.16 2.34 2.46 2.71 2.83 2.75 2.66 2.61 2.49 2.60 2.71 2.68 2.75 2.76 2.82 3.10 3.02 2.82 2.76 2.80 2.68 2.44 2.32 2.12 1.76 1.57 1.57 1.67 1.51 1.34 1.25 1.23 1.21 1.21 1.30 1.39 1.50
1.83 1.79 1.81 1.87 2.00 2.12 2.32 2.44 2.55 2.72 2.68 2.58 2.60 2.52 2.41 2.48 2.44 2.50 2.54 2.53 2.53 2.63 2.80 2.72 2.63 2.70 2.62 2.41 2.32 2.16 2.03 2.11 1.92 1.76 1.62 1.47 1.36 1.30 1.29 1.23 1.25 1.36 1.46
1.59 1.64 1.85 2.08 2.24 2.37 2.46 2.51 2.51 2.49 2.48 2.40 2.30 2.22 2.22 2.32 2.39 2.38 2.31 2.31 2.37 2.52 2.61 2.63 2.60 2.68 2.69 2.65 2.50 2.37 2.39 2.34 2.17 1.74 1.62 1.44 1.34 1.24 1.18 1.12 1.14 1.31 1.45
1.57 1.78 1.95 2.05 2.10 2.16 2.24 2.35 2.35 2.30 2.27 2.19 2.06 1.87 1.90 2.19 2.31 2.29 2.13 2.21 2.29 2.40 2.48 2.59 2.63 2.72 2.78 2.92 2.69 2.43 2.35 2.40 2.27 2.04 1.86 1.62 1.47 1.35 1.31 1.28 1.23 1.25 1.29
1.76 1.93 1.95 1.93 1.89 1.64 1.74 1.86 1.92 1.96 1.98 1.94 1.81 1.73 1.74 1.83 1.85 1.90 1.91 1.92 1.96 2.04 2.24 2.50 2.61 2.61 2.58 2.68 2.74 2.61 2.50 2.46 2.43 2.33 2.35 2.24 1.90 1.81 1.69 1.55 1.44 1.20 1.08
1.95 2.07 2.04 1.97 1.85 1.76 1.66 1.55 1.55 1.63 1.76 1.77 1.77 1.82 1.61 1.46 1.57 1.60 1.72 1.71 1.64 1.70 1.82 2.08 2.29 2.31 2.39 2.39 2.61 2.63 2.67 2.74 2.71 2.66 2.65 2.70 2.36 2.05 1.81 1.73 1.63 1.29 1.13
2.19 2.22 2.18 2.08 1.99 1.92 1.83 1.64 1.62 1.56 1.67 1.70 1.70 1.72 1.66 1.56 1.54 1.64 1.71 1.66 1.52 1.46 1.44 1.42 1.65 1.93 2.13 2.34 2.39 2.46 2.59 2.67 2.69 2.53 2.49 2.59 2.43 2.26 1.94 1.65 1.52 1.33 1.14
2.31 2.30 2.33 2.23 2.15 2.18 2.02 1.67 1.51 1.47 1.63 1.67 1.67 1.60 1.56 1.52 1.56 1.44 1.42 1.45 1.44 1.41 1.26 1.25 1.33 1.54 1.73 1.78 1.97 2.24 2.46 2.46 2.42 2.21 2.03 2.14 2.21 2.20 2.15 1.89 1.50 1.37 1.16
2.41 2.41 2.35 2.32 2.22 2.18 2.08 1.58 1.34 1.33 1.52 1.58 1.65 1.61 1.50 1.37 1.35 1.23 1.23 1.38 1.36 1.34 1.35 1.28 1.19 1.22 1.30 1.45 1.52 1.60 1.91 2.12 2.04 2.00 1.75 1.66 1.65 1.74 1.90 1.73 1.45 1.35 1.30

GEFSMA_prec_meanprecacc_252.txt.gz
Total_Precipitation_Accumulation
2.65 2.71 2.71 2.66 2.44 2.78 3.22 3.48 3.15 3.41 3.43 3.02 2.70 2.56 2.52 2.45 2.63 2.85 2.69 2.79 2.74 2.74 3.06 3.21 3.06 2.82 2.60 2.24 1.98 1.77 1.54 1.42 1.29 1.05 0.87 0.83 0.78 0.72 0.68 0.66 0.64 0.60 0.57
3.16 3.21 3.07 2.97 2.63 2.62 2.93 3.18 3.18 3.56 3.40 3.20 2.59 2.51 2.44 2.55 2.75 2.77 2.76 3.21 3.15 2.91 2.96 3.23 3.41 3.34 3.11 2.91 2.59 2.29 1.98 1.80 1.69 1.37 1.06 0.95 0.89 0.82 0.79 0.81 0.85 0.77 0.62
3.67 3.54 3.34 2.95 2.75 2.77 2.98 2.93 2.96 3.09 2.98 2.88 2.63 2.68 2.64 2.60 2.54 2.60 2.79 3.04 2.92 2.66 2.68 2.89 3.28 3.55 3.72 3.74 3.50 3.23 2.67 2.16 1.97 1.66 1.32 1.07 0.94 0.87 0.85 0.86 0.93 0.89 0.74
3.46 3.48 3.18 2.77 2.82 2.85 2.89 2.98 2.82 2.90 2.91 2.93 2.87 2.63 2.68 2.69 2.32 2.35 2.50 2.53 2.65 2.37 2.47 2.63 2.85 3.14 3.78 4.36 4.68 4.60 3.88 2.96 2.40 2.07 1.77 1.43 1.17 1.00 0.90 0.89 0.98 0.97 0.80
3.25 3.42 3.14 2.97 2.89 2.87 2.74 2.51 2.91 3.06 3.07 3.05 2.70 2.59 2.37 2.19 2.03 1.86 1.87 1.75 1.96 2.17 2.37 2.43 2.63 2.81 3.49 4.44 5.28 5.56 5.13 4.12 3.29 2.73 2.41 2.05 1.73 1.42 1.16 1.06 1.02 0.95 0.86
2.93 3.15 2.90 2.81 2.91 3.01 2.84 2.82 3.10 3.14 2.85 2.90 2.52 2.40 2.22 1.85 1.75 1.68 1.56 1.57 1.57 1.52 1.89 2.36 2.78 2.48 2.86 3.68 4.48 5.13 5.55 5.21 4.33 3.66 3.14 2.74 2.40 2.05 1.62 1.42 1.31 1.22 1.14
2.58 2.95 2.72 3.00 2.86 2.77 2.61 2.56 2.69 2.73 2.46 2.66 2.91 2.44 1.91 1.63 1.56 1.46 1.47 1.55 1.51 1.60 1.93 2.40 2.70 2.83 2.65 2.60 3.03 3.67 4.73 5.21 4.93 4.32 3.76 3.32 2.95 2.62 2.15 1.85 1.67 1.50 1.43
2.69 2.55 2.73 2.55 2.52 2.61 2.42 2.32 2.53 2.54 2.27 2.58 2.75 2.76 2.16 1.91 1.63 1.19 1.32 1.46 1.58 1.80 1.84 1.98 2.39 2.72 2.66 2.94 2.46 2.38 3.36 4.31 4.98 4.94 4.38 3.76 3.28 2.86 2.46 2.20 1.91 1.60 1.44
2.86 2.74 2.63 2.44 2.38 2.23 2.31 2.34 2.39 2.45 2.38 2.36 2.45 2.71 2.36 1.96 1.64 1.27 1.24 1.47 1.80 2.02 1.99 2.05 2.07 2.30 2.39 2.73 2.68 2.45 2.41 2.90 3.85 4.81 4.91 4.26 3.48 2.86 2.47 2.40 2.28 1.94 1.65
2.98 2.72 2.57 2.35 2.19 2.06 2.27 1.99 2.09 2.39 2.52 2.26 2.28 2.27 2.19 2.28 2.15 1.74 1.41 1.33 1.61 1.82 1.89 1.78 1.81 1.99 2.22 2.53 2.64 2.65 2.40 2.34 2.82 3.82 4.48 4.46 3.94 3.27 2.83 2.78 3.00 2.89 2.36
2.72 2.43 2.35 2.28 2.12 1.99 2.00 1.98 2.25 2.28 2.28 2.23 2.31 2.28 2.37 2.51 2.33 2.14 1.80 1.70 1.84 1.81 1.72 1.68 1.72 1.85 2.09 2.40 2.71 2.72 2.92 2.61 2.44 2.67 3.17 3.58 3.78 3.57 3.25 3.33 3.86 4.13 3.76
2.36 2.20 2.12 2.20 2.05 1.94 1.95 1.95 2.08 2.16 2.30 2.40 2.41 2.39 2.44 2.42 2.42 2.61 2.28 2.06 2.03 1.77 1.70 1.73 1.81 1.94 2.08 2.31 2.34 2.54 2.69 2.76 2.62 2.53 2.60 2.77 3.05 3.31 3.47 3.70 4.15 4.58 4.78
1.93 1.91 1.99 2.11 1.95 1.89 1.96 2.12 2.13 2.10 2.25 2.36 2.30 2.38 2.46 2.41 2.52 2.70 2.62 2.29 2.09 1.85 1.89 1.88 1.86 2.07 2.10 2.39 2.62 2.56 2.30 2.38 2.34 2.28 2.25 2.27 2.33 2.63 2.94 3.20 3.69 4.22 4.67
1.69 1.75 1.96 2.03 1.96 1.89 1.89 2.25 2.23 2.23 2.33 2.31 2.20 2.50 2.56 2.36 2.56 2.77 2.86 2.86 2.56 2.38 2.42 2.40 2.14 2.11 2.21 2.35 2.59 2.45 2.20 2.20 1.91 1.82 1.80 1.84 1.88 2.00 2.19 2.44 2.76 3.10 3.39
1.77 1.84 1.91 2.10 2.19 2.26 2.30 2.44 2.36 2.35 2.54 2.51 2.46 2.61 2.62 2.49 2.51 2.63 2.87 3.07 3.09 2.89 2.79 2.71 2.41 2.27 2.22 2.20 2.34 2.22 2.28 2.19 1.75 1.49 1.43 1.44 1.44 1.46 1.53 1.69 1.92 2.19 2.37
1.89 1.93 1.94 2.02 2.15 2.27 2.33 2.49 2.48 2.52 2.69 2.71 2.76 2.84 2.72 2.48 2.58 2.63 2.78 3.06 3.31 3.34 3.08 2.71 2.49 2.35 2.34 2.08 2.12 1.93 1.96 1.88 1.55 1.39 1.29 1.24 1.22 1.22 1.23 1.29 1.42 1.66 1.86
1.87 1.92 1.93 1.90 1.89 2.04 2.25 2.46 2.43 2.59 2.72 2.76 2.74 2.66 2.55 2.60 2.74 2.68 2.82 2.98 3.18 3.40 3.15 2.82 2.68 2.62 2.60 2.40 2.24 1.93 1.69 1.56 1.44 1.49 1.34 1.21 1.16 1.16 1.21 1.27 1.33 1.44 1.62
1.92 1.89 1.87 1.86 1.82 1.92 2.18 2.36 2.47 2.72 2.86 2.77 2.69 2.63 2.51 2.63 2.74 2.72 2.79 2.79 2.85 3.13 3.05 2.85 2.79 2.82 2.69 2.46 2.33 2.13 1.78 1.58 1.59 1.68 1.52 1.35 1.25 1.23 1.21 1.22 1.30 1.39 1.50
1.85 1.80 1.83 1.91 2.03 2.14 2.32 2.45 2.56 2.74 2.71 2.61 2.63 2.55 2.44 2.51 2.47 2.54 2.57 2.57 2.57 2.66 2.83 2.75 2.66 2.74 2.64 2.43 2.34 2.17 2.04 2.13 1.94 1.78 1.62 1.47 1.36 1.30 1.29 1.23 1.26 1.36 1.46
1.60 1.66 1.87 2.11 2.26 2.38 2.49 2.52 2.53 2.50 2.50 2.42 2.32 2.25 2.27 2.38 2.43 2.42 2.34 2.34 2.41 2.55 2.64 2.66 2.63 2.71 2.72 2.67 2.52 2.39 2.41 2.36 2.19 1.76 1.64 1.45 1.35 1.24 1.18 1.12 1.15 1.31 1.46
1.58 1.80 1.97 2.08 2.12 2.18 2.25 2.37 2.37 2.31 2.30 2.22 2.12 1.94 1.97 2.26 2.37 2.32 2.14 2.25 2.33 2.42 2.51 2.63 2.67 2.75 2.82 2.95 2.72 2.45 2.38 2.44 2.31 2.06 1.89 1.64 1.49 1.36 1.32 1.28 1.24 1.26 1.30
1.78 1.96 1.97 1.94 1.90 1.65 1.74 1.87 1.92 1.98 2.02 2.00 1.89 1.81 1.81 1.89 1.91 1.93 1.92 1.94 1.99 2.07 2.27 2.55 2.65 2.66 2.62 2.71 2.77 2.64 2.54 2.51 2.48 2.37 2.39 2.27 1.93 1.83 1.70 1.56 1.45 1.21 1.09
1.98 2.10 2.06 1.99 1.86 1.78 1.67 1.56 1.56 1.64 1.78 1.81 1.83 1.88 1.64 1.47 1.59 1.62 1.74 1.72 1.65 1.72 1.86 2.13 2.33 2.34 2.42 2.43 2.66 2.67 2.72 2.79 2.77 2.70 2.69 2.74 2.38 2.07 1.82 1.74 1.64 1.30 1.14
2.22 2.25 2.22 2.11 2.01 1.93 1.84 1.65 1.63 1.57 1.67 1.71 1.71 1.73 1.67 1.56 1.54 1.65 1.72 1.67 1.52 1.47 1.45 1.44 1.68 1.95 2.15 2.37 2.42 2.49 2.63 2.72 2.73 2.57 2.51 2.61 2.44 2.27 1.95 1.67 1.55 1.35 1.16
2.33 2.32 2.36 2.26 2.17 2.19 2.04 1.69 1.53 1.48 1.63 1.67 1.67 1.61 1.56 1.52 1.56 1.44 1.42 1.45 1.44 1.41 1.26 1.25 1.33 1.54 1.73 1.79 1.99 2.25 2.48 2.49 2.46 2.24 2.05 2.16 2.22 2.22 2.18 1.92 1.54 1.41 1.21
2.45 2.45 2.38 2.34 2.24 2.21 2.13 1.62 1.37 1.34 1.53 1.59 1.65 1.61 1.51 1.38 1.35 1.23 1.23 1.38 1.36 1.35 1.35 1.28 1.19 1.22 1.30 1.45 1.53 1.61 1.93 2.15 2.07 2.02 1.77 1.68 1.67 1.77 1.94 1.76 1.48 1.39 1.34

GEFSMA_prec_meanprecacc_258.txt.gz
Total_Precipitation_Accumulation
2.71 2.78 2.78 2.73 2.52 2.86 3.28 3.53 3.19 3.46 3.48 3.08 2.75 2.61 2.60 2.54 2.69 2.89 2.74 2.85 2.81 2.83 3.17 3.31 3.14 2.87 2.64 2.29 2.01 1.79 1.57 1.45 1.32 1.08 0.90 0.86 0.81 0.76 0.73 0.70 0.68 0.63 0.59
3.22 3.27 3.13 3.03 2.69 2.68 2.97 3.22 3.23 3.61 3.45 3.26 2.66 2.56 2.51 2.62 2.81 2.82 2.82 3.29 3.23 2.97 3.02 3.31 3.50 3.43 3.21 2.99 2.66 2.33 2.02 1.84 1.72 1.39 1.08 0.97 0.92 0.87 0.84 0.86 0.90 0.80 0.66
3.75 3.61 3.40 3.00 2.79 2.81 3.02 2.96 3.00 3.13 3.02 2.93 2.68 2.74 2.70 2.67 2.59 2.65 2.84 3.09 2.99 2.72 2.74 2.95 3.35 3.61 3.81 3.85 3.60 3.31 2.73 2.21 2.02 1.70 1.34 1.10 0.96 0.91 0.88 0.89 0.96 0.92 0.77
3.51 3.53 3.23 2.81 2.85 2.88 2.93 3.02 2.88 2.96 2.96 2.98 2.93 2.68 2.73 2.73 2.35 2.38 2.54 2.57 2.71 2.41 2.52 2.71 2.92 3.19 3.84 4.45 4.78 4.69 3.97 3.03 2.46 2.12 1.83 1.48 1.22 1.04 0.93 0.92 1.01 0.99 0.82
3.29 3.45 3.16 2.99 2.91 2.89 2.77 2.54 2.95 3.10 3.10 3.09 2.74 2.63 2.40 2.22 2.06 1.90 1.93 1.80 2.00 2.21 2.41 2.47 2.69 2.87 3.56 4.52 5.37 5.65 5.23 4.20 3.34 2.79 2.48 2.12 1.78 1.46 1.19 1.09 1.05 0.98 0.87
2.96 3.17 2.92 2.84 2.94 3.04 2.87 2.86 3.16 3.18 2.88 2.94 2.57 2.45 2.28 1.88 1.78 1.73 1.62 1.61 1.62 1.58 1.94 2.40 2.84 2.52 2.90 3.74 4.57 5.23 5.67 5.31 4.41 3.73 3.21 2.80 2.45 2.08 1.66 1.46 1.33 1.25 1.16
2.60 2.98 2.76 3.07 2.89 2.81 2.64 2.60 2.73 2.77 2.50 2.71 2.97 2.51 1.99 1.70 1.60 1.50 1.51 1.59 1.55 1.64 1.99 2.44 2.73 2.85 2.68 2.63 3.08 3.75 4.83 5.31 5.02 4.40 3.82 3.38 3.00 2.67 2.20 1.90 1.71 1.53 1.45
2.71 2.57 2.76 2.58 2.55 2.64 2.44 2.35 2.58 2.58 2.31 2.62 2.80 2.81 2.22 1.97 1.68 1.24 1.38 1.51 1.62 1.85 1.89 2.01 2.42 2.76 2.69 2.97 2.50 2.43 3.42 4.40 5.09 5.05 4.47 3.84 3.37 2.94 2.53 2.26 1.97 1.65 1.47
2.87 2.76 2.66 2.46 2.40 2.25 2.35 2.39 2.45 2.49 2.43 2.40 2.48 2.75 2.40 2.00 1.67 1.31 1.29 1.52 1.84 2.05 2.03 2.08 2.10 2.33 2.43 2.75 2.70 2.47 2.44 2.94 3.91 4.90 5.00 4.35 3.55 2.92 2.52 2.46 2.34 2.00 1.70
3.01 2.75 2.60 2.38 2.21 2.08 2.31 2.03 2.13 2.41 2.55 2.29 2.31 2.29 2.22 2.30 2.17 1.77 1.43 1.35 1.63 1.84 1.91 1.80 1.83 2.02 2.24 2.54 2.66 2.67 2.42 2.37 2.86 3.87 4.56 4.54 3.99 3.32 2.87 2.83 3.07 2.97 2.48
2.76 2.45 2.38 2.33 2.15 2.00 2.02 2.00 2.28 2.30 2.30 2.26 2.34 2.31 2.39 2.52 2.34 2.15 1.81 1.70 1.85 1.83 1.73 1.68 1.73 1.87 2.11 2.41 2.72 2.73 2.94 2.63 2.47 2.69 3.20 3.62 3.82 3.62 3.29 3.38 3.92 4.21 3.88
2.39 2.21 2.15 2.23 2.08 1.97 1.97 1.96 2.09 2.18 2.32 2.42 2.44 2.41 2.46 2.44 2.44 2.64 2.30 2.07 2.04 1.78 1.72 1.74 1.82 1.95 2.11 2.34 2.36 2.55 2.70 2.77 2.64 2.55 2.61 2.79 3.08 3.36 3.53 3.77 4.22 4.65 4.85
1.98 1.94 2.02 2.15 1.99 1.94 1.99 2.14 2.14 2.12 2.27 2.38 2.33 2.42 2.49 2.43 2.54 2.72 2.64 2.30 2.09 1.87 1.91 1.90 1.88 2.09 2.13 2.41 2.65 2.59 2.32 2.40 2.35 2.30 2.27 2.29 2.36 2.66 2.99 3.26 3.77 4.30 4.74
1.73 1.78 1.99 2.07 2.01 1.93 1.91 2.26 2.24 2.24 2.34 2.33 2.23 2.53 2.59 2.39 2.59 2.79 2.88 2.88 2.58 2.40 2.44 2.42 2.16 2.14 2.24 2.37 2.62 2.50 2.26 2.24 1.94 1.85 1.83 1.86 1.89 2.02 2.22 2.47 2.81 3.17 3.47
1.80 1.88 1.94 2.13 2.22 2.29 2.33 2.46 2.38 2.37 2.55 2.52 2.47 2.63 2.63 2.50 2.53 2.66 2.88 3.08 3.11 2.91 2.83 2.74 2.43 2.31 2.26 2.23 2.38 2.26 2.33 2.25 1.79 1.54 1.47 1.46 1.45 1.48 1.55 1.71 1.94 2.24 2.46
1.92 1.96 1.96 2.04 2.18 2.30 2.35 2.51 2.50 2.54 2.72 2.72 2.77 2.84 2.73 2.50 2.60 2.65 2.80 3.07 3.33 3.37 3.11 2.74 2.51 2.39 2.38 2.10 2.14 1.95 1.98 1.92 1.60 1.43 1.33 1.27 1.24 1.24 1.25 1.31 1.44 1.70 1.90
1.89 1.93 1.94 1.92 1.92 2.07 2.27 2.48 2.44 2.61 2.73 2.77 2.75 2.66 2.56 2.61 2.76 2.70 2.84 3.00 3.21 3.43 3.18 2.84 2.70 2.65 2.64 2.43 2.26 1.95 1.71 1.58 1.47 1.51 1.36 1.23 1.18 1.17 1.21 1.27 1.34 1.45 1.63
1.94 1.91 1.89 1.88 1.84 1.94 2.20 2.37 2.48 2.73 2.86 2.78 2.69 2.64 2.53 2.64 2.75 2.74 2.82 2.82 2.89 3.17 3.08 2.88 2.82 2.85 2.73 2.50 2.36 2.16 1.80 1.60 1.62 1.71 1.55 1.38 1.27 1.25 1.22 1.22 1.31 1.40 1.51
1.87 1.83 1.84 1.92 2.04 2.15 2.34 2.46 2.57 2.74 2.71 2.62 2.63 2.56 2.45 2.54 2.50 2.57 2.60 2.59 2.60 2.70 2.88 2.79 2.70 2.77 2.69 2.48 2.38 2.20 2.07 2.16 1.98 1.82 1.66 1.51 1.39 1.33 1.30 1.24 1.26 1.36 1.46
1.63 1.69 1.90 2.13 2.28 2.40 2.50 2.53 2.54 2.51 2.51 2.42 2.33 2.26 2.29 2.42 2.51 2.47 2.37 2.37 2.44 2.59 2.69 2.71 2.68 2.74 2.76 2.73 2.58 2.43 2.45 2.39 2.23 1.80 1.67 1.49 1.39 1.28 1.21 1.13 1.15 1.32 1.46
1.60 1.82 1.99 2.10 2.14 2.20 2.26 2.38 2.38 2.32 2.31 2.23 2.12 1.95 1.99 2.30 2.46 2.40 2.20 2.29 2.35 2.44 2.53 2.65 2.69 2.77 2.84 3.00 2.75 2.48 2.41 2.47 2.33 2.10 1.92 1.68 1.53 1.40 1.35 1.30 1.25 1.26 1.31
1.81 1.98 1.99 1.96 1.92 1.66 1.76 1.89 1.94 1.99 2.03 2.01 1.89 1.82 1.82 1.91 1.95 1.97 1.95 1.96 2.00 2.08 2.28 2.56 2.67 2.68 2.65 2.73 2.79 2.67 2.57 2.53 2.50 2.40 2.42 2.29 1.95 1.85 1.73 1.58 1.46 1.22 1.10
2.01 2.13 2.09 2.01 1.88 1.79 1.69 1.58 1.59 1.66 1.81 1.83 1.84 1.89 1.65 1.48 1.60 1.63 1.75 1.73 1.66 1.73 1.86 2.13 2.33 2.34 2.42 2.44 2.67 2.69 2.74 2.80 2.78 2.72 2.71 2.75 2.40 2.08 1.83 1.75 1.66 1.32 1.16
2.27 2.29 2.25 2.14 2.03 1.95 1.86 1.69 1.67 1.60 1.71 1.74 1.74 1.75 1.69 1.58 1.55 1.65 1.72 1.67 1.53 1.47 1.45 1.45 1.68 1.95 2.16 2.38 2.43 2.50 2.64 2.73 2.74 2.58 2.53 2.62 2.45 2.28 1.96 1.68 1.56 1.37 1.19
2.37 2.36 2.41 2.31 2.21 2.22 2.09 1.75 1.59 1.52 1.67 1.71 1.71 1.64 1.59 1.54 1.57 1.45 1.43 1.46 1.44 1.41 1.26 1.26 1.34 1.55 1.74 1.80 2.00 2.27 2.50 2.50 2.46 2.25 2.06 2.17 2.23 2.23 2.18 1.93 1.55 1.43 1.23
2.50 2.50 2.44 2.44 2.35 2.31 2.24 1.71 1.44 1.39 1.57 1.61 1.67 1.62 1.51 1.38 1.35 1.24 1.24 1.39 1.37 1.35 1.36 1.29 1.21 1.24 1.32 1.47 1.55 1.63 1.94 2.16 2.08 2.03 1.78 1.69 1.68 1.78 1.95 1.77 1.50 1.40 1.36

GEFSMA_prec_meanprecacc_264.txt.gz
Total_Precipitation_Accumulation
2.81 2.87 2.87 2.80 2.58 2.92 3.33 3.58 3.23 3.48 3.50 3.10 2.77 2.64 2.63 2.56 2.71 2.92 2.80 2.94 2.91 2.92 3.24 3.40 3.24 2.97 2.73 2.38 2.10 1.85 1.62 1.49 1.35 1.11 0.93 0.90 0.86 0.83 0.81 0.78 0.74 0.68 0.64
3.32 3.36 3.22 3.10 2.75 2.73 3.03 3.27 3.28 3.66 3.49 3.30 2.68 2.59 2.53 2.65 2.83 2.85 2.86 3.34 3.28 3.03 3.09 3.39 3.61 3.56 3.32 3.10 2.74 2.40 2.08 1.90 1.77 1.43 1.12 1.02 0.98 0.93 0.90 0.91 0.95 0.85 0.70
3.85 3.70 3.49 3.09 2.85 2.86 3.08 3.04 3.06 3.19 3.07 2.97 2.72 2.77 2.74 2.70 2.63 2.68 2.88 3.12 3.02 2.78 2.83 3.05 3.45 3.72 3.94 3.95 3.68 3.39 2.81 2.28 2.07 1.75 1.39 1.13 1.00 0.94 0.92 0.93 1.00 0.97 0.81
3.61 3.62 3.29 2.87 2.90 2.91 2.97 3.08 2.94 3.01 3.01 3.03 2.98 2.73 2.78 2.77 2.40 2.42 2.57 2.61 2.74 2.45 2.58 2.79 2.99 3.27 3.94 4.56 4.92 4.82 4.11 3.19 2.57 2.18 1.88 1.53 1.25 1.07 0.96 0.96 1.05 1.03 0.86
3.39 3.52 3.21 3.03 2.95 2.92 2.80 2.58 3.00 3.15 3.16 3.13 2.79 2.67 2.45 2.25 2.08 1.93 1.96 1.83 2.03 2.22 2.42 2.50 2.74 2.94 3.66 4.66 5.54 5.83 5.41 4.38 3.49 2.89 2.56 2.18 1.82 1.50 1.22 1.13 1.09 1.01 0.90
3.04 3.23 2.97 2.88 2.97 3.07 2.91 2.90 3.21 3.26 2.98 3.02 2.63 2.50 2.33 1.91 1.80 1.75 1.67 1.68 1.66 1.60 1.96 2.42 2.87 2.57 2.96 3.83 4.70 5.41 5.85 5.48 4.54 3.83 3.28 2.87 2.50 2.12 1.69 1.49 1.38 1.29 1.20
2.66 3.03 2.81 3.11 2.93 2.85 2.70 2.66 2.78 2.83 2.58 2.78 3.03 2.56 2.04 1.73 1.63 1.54 1.56 1.63 1.58 1.67 2.02 2.46 2.75 2.88 2.70 2.65 3.13 3.83 4.94 5.47 5.14 4.48 3.89 3.44 3.05 2.72 2.25 1.96 1.77 1.59 1.51
2.75 2.60 2.79 2.62 2.59 2.68 2.49 2.40 2.62 2.64 2.36 2.67 2.85 2.86 2.25 1.99 1.71 1.26 1.41 1.54 1.65 1.89 1.94 2.03 2.44 2.78 2.70 2.98 2.53 2.48 3.47 4.49 5.18 5.14 4.54 3.92 3.44 3.01 2.60 2.34 2.02 1.70 1.52
2.91 2.79 2.68 2.50 2.44 2.30 2.40 2.44 2.50 2.54 2.49 2.45 2.51 2.78 2.42 2.01 1.69 1.33 1.32 1.55 1.85 2.07 2.06 2.11 2.11 2.36 2.45 2.77 2.71 2.50 2.48 3.00 4.00 5.01 5.09 4.43 3.63 2.99 2.58 2.51 2.40 2.06 1.76
3.04 2.78 2.62 2.41 2.25 2.12 2.37 2.09 2.19 2.48 2.63 2.35 2.34 2.32 2.24 2.32 2.19 1.80 1.44 1.37 1.64 1.84 1.91 1.81 1.86 2.04 2.26 2.56 2.68 2.69 2.44 2.40 2.92 3.95 4.62 4.61 4.06 3.38 2.92 2.89 3.14 3.05 2.55
2.79 2.48 2.40 2.34 2.17 2.04 2.07 2.06 2.34 2.36 2.38 2.32 2.39 2.35 2.42 2.55 2.36 2.19 1.82 1.71 1.86 1.83 1.74 1.69 1.73 1.88 2.12 2.43 2.74 2.76 2.96 2.67 2.51 2.74 3.26 3.68 3.88 3.67 3.33 3.43 3.99 4.29 3.96
2.44 2.24 2.16 2.25 2.10 2.01 2.03 2.02 2.14 2.23 2.38 2.48 2.48 2.45 2.49 2.48 2.48 2.67 2.31 2.08 2.05 1.79 1.73 1.75 1.83 1.95 2.12 2.35 2.38 2.58 2.75 2.82 2.68 2.58 2.64 2.82 3.13 3.40 3.56 3.81 4.27 4.71 4.93
2.01 1.96 2.04 2.16 2.02 1.97 2.04 2.19 2.18 2.16 2.31 2.41 2.37 2.45 2.52 2.46 2.56 2.75 2.66 2.31 2.10 1.87 1.91 1.90 1.89 2.10 2.13 2.42 2.66 2.62 2.36 2.44 2.38 2.33 2.30 2.31 2.37 2.67 3.01 3.31 3.83 4.37 4.82
1.76 1.81 2.02 2.10 2.03 1.95 1.94 2.30 2.28 2.29 2.38 2.36 2.26 2.56 2.61 2.41 2.60 2.80 2.90 2.91 2.59 2.40 2.45 2.43 2.18 2.15 2.25 2.39 2.64 2.52 2.29 2.29 2.00 1.91 1.87 1.88 1.92 2.03 2.23 2.50 2.85 3.23 3.54
1.82 1.90 1.96 2.15 2.24 2.31 2.35 2.48 2.41 2.40 2.58 2.54 2.49 2.66 2.66 2.53 2.55 2.68 2.91 3.11 3.12 2.92 2.84 2.76 2.45 2.32 2.28 2.25 2.39 2.28 2.35 2.28 1.85 1.61 1.54 1.51 1.48 1.49 1.56 1.73 1.97 2.29 2.51
1.95 1.98 1.98 2.06 2.19 2.32 2.38 2.52 2.52 2.56 2.73 2.73 2.78 2.86 2.75 2.51 2.62 2.68 2.81 3.08 3.34 3.38 3.13 2.75 2.53 2.40 2.39 2.12 2.15 1.96 1.99 1.94 1.64 1.47 1.37 1.32 1.27 1.25 1.26 1.32 1.46 1.73 1.94
1.92 1.96 1.96 1.94 1.95 2.09 2.29 2.49 2.45 2.62 2.74 2.78 2.76 2.67 2.58 2.62 2.77 2.71 2.85 3.01 3.22 3.45 3.19 2.85 2.71 2.67 2.65 2.45 2.27 1.97 1.73 1.61 1.49 1.54 1.38 1.24 1.19 1.19 1.23 1.29 1.35 1.47 1.65
1.98 1.95 1.92 1.91 1.87 1.96 2.21 2.38 2.49 2.74 2.87 2.78 2.70 2.64 2.54 2.66 2.77 2.75 2.83 2.82 2.90 3.18 3.09 2.88 2.83 2.87 2.76 2.53 2.39 2.19 1.83 1.63 1.64 1.74 1.57 1.39 1.29 1.27 1.24 1.24 1.32 1.41 1.52
1.91 1.87 1.89 1.96 2.06 2.17 2.35 2.47 2.58 2.75 2.72 2.62 2.64 2.56 2.47 2.56 2.52 2.59 2.61 2.60 2.61 2.71 2.89 2.81 2.72 2.80 2.72 2.52 2.42 2.24 2.11 2.19 2.00 1.84 1.69 1.53 1.42 1.35 1.33 1.26 1.28 1.37 1.47
1.66 1.72 1.92 2.15 2.29 2.41 2.50 2.53 2.54 2.51 2.52 2.43 2.34 2.27 2.30 2.43 2.53 2.49 2.39 2.38 2.45 2.59 2.70 2.73 2.70 2.78 2.79 2.77 2.62 2.48 2.47 2.41 2.25 1.82 1.71 1.53 1.42 1.31 1.24 1.16 1.18 1.33 1.47
1.65 1.86 2.03 2.13 2.16 2.21 2.27 2.38 2.39 2.33 2.31 2.23 2.14 1.96 1.99 2.31 2.47 2.41 2.21 2.30 2.36 2.44 2.53 2.66 2.71 2.79 2.86 3.04 2.81 2.52 2.42 2.48 2.35 2.11 1.93 1.70 1.56 1.45 1.39 1.33 1.27 1.28 1.31
1.85 2.03 2.03 2.00 1.94 1.68 1.77 1.90 1.95 2.00 2.04 2.02 1.90 1.83 1.83 1.92 1.95 1.98 1.96 1.96 2.01 2.08 2.29 2.56 2.67 2.68 2.65 2.74 2.81 2.69 2.58 2.54 2.51 2.41 2.43 2.31 1.98 1.88 1.75 1.60 1.48 1.24 1.11
2.06 2.17 2.14 2.06 1.91 1.81 1.70 1.61 1.62 1.69 1.83 1.84 1.86 1.90 1.67 1.49 1.61 1.64 1.76 1.74 1.67 1.73 1.86 2.13 2.34 2.35 2.43 2.45 2.68 2.72 2.77 2.81 2.79 2.74 2.73 2.77 2.41 2.10 1.85 1.76 1.66 1.32 1.17
2.31 2.33 2.29 2.18 2.06 1.97 1.89 1.72 1.71 1.65 1.74 1.76 1.76 1.77 1.71 1.59 1.57 1.67 1.73 1.68 1.53 1.48 1.46 1.46 1.68 1.96 2.17 2.40 2.46 2.52 2.66 2.74 2.75 2.59 2.54 2.63 2.46 2.29 1.97 1.69 1.57 1.37 1.19
2.46 2.42 2.44 2.33 2.23 2.23 2.11 1.77 1.62 1.55 1.70 1.73 1.72 1.66 1.61 1.55 1.58 1.46 1.43 1.46 1.45 1.42 1.27 1.26 1.34 1.56 1.76 1.82 2.03 2.30 2.52 2.52 2.48 2.27 2.08 2.19 2.25 2.25 2.20 1.94 1.57 1.44 1.24
2.58 2.55 2.48 2.47 2.37 2.33 2.26 1.74 1.46 1.40 1.59 1.64 1.70 1.66 1.54 1.40 1.37 1.25 1.24 1.39 1.38 1.36 1.37 1.30 1.22 1.25 1.34 1.50 1.58 1.66 1.97 2.19 2.11 2.06 1.81 1.73 1.72 1.83 1.99 1.80 1.52 1.42 1.37